Location: Kruen
(47.5000°N, 11.5000°E)
Time: 01:46:00
(UTC+02:00)

ITUPSAT 1 - Visible Passes

Search period start: 19 April 2026 00:00
Search period end: 29 April 2026 00:00
Orbit: 686 x 698 km, 98.4° (Epoch: 18 April)

Date Brightness Start Highest point End Pass type
(mag) Time Alt. Az. Time Alt. Az. Time Alt. Az.
19 Apr ? 00:13:04 10° NNE 00:15:15 23° NE 00:15:15 23° NE visible
19 Apr ? 01:50:43 10° N 01:53:56 28° NW 01:53:56 28° NW visible
20 Apr ? 00:52:18 10° NNE 00:55:20 40° NNE 00:55:20 40° NNE visible
20 Apr ? 02:31:17 10° NNW 02:33:54 15° WNW 02:34:00 15° WNW visible
20 Apr ? 23:54:56 10° NE 23:56:44 18° ENE 23:56:44 18° ENE visible
21 Apr ? 01:31:58 10° N 01:35:24 38° NW 01:35:24 38° NW visible
22 Apr ? 00:33:51 10° NNE 00:36:48 35° NE 00:36:48 35° NE visible
22 Apr ? 02:12:08 10° NNW 02:15:28 21° WNW 02:15:28 21° WNW visible
22 Apr ? 23:37:07 10° NE 23:38:12 13° ENE 23:38:12 13° ENE visible
23 Apr ? 01:13:19 10° N 01:16:52 48° NNW 01:16:52 48° NNW visible
23 Apr ? 02:54:10 10° NW 02:54:36 10° NW 02:55:02 10° WNW visible
24 Apr ? 00:15:32 10° NNE 00:18:15 28° ENE 00:18:15 28° ENE visible
24 Apr ? 01:53:14 10° N 01:56:56 29° NW 01:56:56 29° NW visible
25 Apr ? 00:54:46 10° NNE 00:58:19 51° NNE 00:58:19 51° NNE visible
25 Apr ? 02:33:51 10° NNW 02:36:22 15° WNW 02:36:59 14° WNW visible
25 Apr ? 23:57:22 10° NE 23:59:43 21° ENE 23:59:43 21° ENE visible
26 Apr ? 01:34:28 10° N 01:38:23 41° NW 01:38:23 41° NW visible
27 Apr ? 00:36:19 10° NNE 00:39:46 43° NE 00:39:46 43° NE visible
27 Apr ? 02:14:39 10° NNW 02:18:05 20° WNW 02:18:26 20° WNW visible
27 Apr ? 23:39:29 10° NE 23:41:09 15° ENE 23:41:09 15° ENE visible
28 Apr ? 01:15:48 10° N 01:19:49 56° NNW 01:19:49 56° NNW visible
